Flag for Canada Weather past 2 weeks in Vancouver, British Columbia, Canada

Now
52 °F

Broken clouds.


Feels Like: 49 °F
Forecast: 41 / 52 °F
Wind: 9 mph from West

Location: Vancouver International Air-Port

Current Time: Apr 1, 2015 at 3:19:11 PM

Latest Report: Apr 1, 2015 at 2:00 PM


Visibility: 30 mi

Pressure: 30.25 "Hg

Humidity: 54%

Dew point: 36 °F

Location of VancouverLocation

Historic Weather in Vancouver — Graph

°F

Vancouver temperature yesterday

Maximum temperature yesterday: 54 °F (at 12:00 AM)
Minimum temperature yesterday: 45 °F (at 7:00 AM)
Average temperature yesterday: 48 °F

Past Weeks' High & Low Weather Summary

 TemperatureHumidityPressure
High63 °F (Mar 26, 2:00 PM)100% (Mar 20, 3:00 AM)30.31 "Hg (Mar 20, 3:00 AM)
Low41 °F (Mar 24, 6:00 AM)51% (Mar 18, 5:00 PM)29.74 "Hg (Mar 31, 12:00 AM)
Average50 °F85%30.07 "Hg
* Reported Mar 17 2:00 PM — Apr 1 2:00 PM, Vancouver, Weather by CustomWeather, © 2015

Note: Actual official high and low records may vary slightly from our data, if they occured in-between our weather recording intervals... More about our weather records

Advertising

Vancouver weather history for previous 24 hours

 ConditionsComfort  
Time TempWeatherWind HumidityBarometerVisibility
2:00 PM
Wed, Apr 1
52 °FBroken clouds.9 mph54%30.25 "Hg30 mi
1:00 PM50 °FScattered clouds.9 mph76%30.26 "Hg30 mi
12:00 PM50 °FScattered clouds.8 mph76%30.27 "Hg30 mi
11:00 AM48 °FBroken clouds.7 mph76%30.27 "Hg30 mi
10:00 AM48 °FScattered clouds.6 mph76%30.26 "Hg30 mi
9:00 AM46 °FPassing clouds.3 mph82%30.24 "Hg30 mi
8:00 AM43 °FPassing clouds.6 mph87%30.23 "Hg30 mi
7:00 AM41 °FPassing clouds.3 mph93%30.22 "Hg20 mi
6:00 AM43 °FPassing clouds.8 mph87%30.20 "Hg15 mi
5:00 AM43 °FPassing clouds.6 mph87%30.19 "Hg15 mi
4:00 AM43 °FPassing clouds.8 mph87%30.19 "Hg15 mi
3:00 AM45 °FPassing clouds.9 mph81%30.18 "Hg15 mi
2:00 AM45 °FPassing clouds.10 mph81%30.17 "Hg15 mi
1:00 AM45 °FPassing clouds.5 mph87%30.16 "Hg15 mi
12:00 AM46 °FPartly cloudy.8 mph76%30.14 "Hg15 mi
11:00 PM
Tue, Mar 31
45 °FPassing clouds.2 mph76%30.13 "Hg20 mi
10:00 PM46 °FPassing clouds.3 mph71%30.12 "Hg20 mi
9:00 PM45 °FPassing clouds.3 mph76%30.11 "Hg20 mi
8:00 PM46 °FBroken clouds.7 mph71%30.09 "Hg20 mi
7:00 PM48 °FSprinkles. Broken clouds.21 mph71%30.09 "Hg30 mi
6:00 PM50 °FMostly cloudy.12 mph67%30.08 "Hg30 mi
5:00 PM50 °FPartly sunny.12 mph71%30.08 "Hg30 mi
4:00 PM52 °FBroken clouds.9 mph58%30.07 "Hg30 mi
3:00 PM52 °FCloudy.8 mph67%30.07 "Hg30 mi
Weather by CustomWeather, © 2015

See weather overviewHow to use our weather pages